Regional Weather Roundup
Issued by NWS Kansas City/Pleasant Hill, MO

Home | Current Version | Previous Version | Text Only | Print | Product List | Glossary On
Versions: 1 2 3 4 5 6 7 8 9 10 11 12 13 14 15 16 17 18 19 20 21 22 23 24 25 26 27 28 29 30 31 32 33 34 35 36 37 38 39 40 41 42 43 44 45 46 47 48 49 50
000
ASUS43 KEAX 201110
RWREAX

WEATHER ROUNDUP FOR EASTERN KANSAS AND NORTHWEST MISSOURI
NATIONAL WEATHER SERVICE KANSAS CITY/PLEASANT HILL MO
500 AM CST SAT JAN 20 2018

KSZ040-057-103>105-MOZ028-029-037-043-201200-
...KANSAS CITY METROPOLITAN AREA...

CITY           SKY/WX    TMP DP  RH WIND       PRES   REMARKS
K.C. INTL      CLOUDY    44  39  82 SW13      29.86R
K.C. DOWNTOWN  CLOUDY    45  39  79 SW12      29.87R
LEES SUMMIT    CLOUDY    45  42  89 SW18G29   29.87S
OLATHE - IXD   CLOUDY    44  42  93 S15       29.87S
OLATHE - OJC   CLOUDY    42  41  96 S12       29.87S
LAWRENCE       CLOUDY    43  40  89 S6        29.87R

$$

MOZ001>008-011>017-020>025-030>033-038>040-044>046-053-054-201200-
...NORTHERN AND CENTRAL MISSOURI...

CITY           SKY/WX    TMP DP  RH WIND       PRES   REMARKS
ST. JOSEPH     CLOUDY    34  34 100 CALM      29.86R
MOSBY          CLOUDY    45  39  81 SW9       29.88R
WARRENSBURG    CLOUDY    39  36  87 S7        29.89S WCI  34
WHITEMAN AFB   CLOUDY    35  33  92 S9        29.86S WCI  28
CLINTON        CLOUDY    37  36  93 S3        29.92S
SEDALIA        PTCLDY    42  40  92 S10       29.91S
WARSAW         NOT AVBL
CHILLICOTHE      N/A     37  32  82 S6        29.88R WCI  32
KIRKSVILLE     CLOUDY    38  34  85 SW9       29.88R WCI  31

$$

MOZ041-047>049-056>058-063>065-088>090-097-201200-
...EASTERN AND SOUTHERN MISSOURI...

CITY           SKY/WX    TMP DP  RH WIND       PRES   REMARKS
ST. LOUIS INTL CLOUDY    33  28  81 SE6       29.98S WCI  28
SPIRIT OF STL  CLOUDY    41  32  70 SW10      29.97S WCI  35
COLUMBIA       CLOUDY    36  31  82 S6        29.92S WCI  31
JEFFERSON CITY CLOUDY    39  32  76 E5        29.94F
ROLLA          CLOUDY    38  34  85 S14       29.96S WCI  30
OSAGE BEACH    CLOUDY    39  37  92 S7        29.95F WCI  34
SPRINGFIELD    CLOUDY    50  44  80 SW17      29.95S
BRANSON        CLOUDY    50  41  71 S9G16     29.98F
JOPLIN         CLOUDY    50  46  86 S21G31    29.92S
WEST PLAINS    CLOUDY    38  28  67 S7        30.02R WCI  33

$$

IAZ060-094-KSZ022-034>040-054-083-096-NEZ052-066-093-201200-
...KANSAS...SOUTHEAST NEBRASKA AND IOWA...

CITY           SKY/WX    TMP DP  RH WIND       PRES   REMARKS
TOPEKA         CLOUDY    44  41  89 S6        29.85R
MANHATTAN      CLOUDY    43  39  86 SW6       29.81S
EMPORIA        CLOUDY    44  41  89 S8        29.83S
CHANUTE        CLOUDY    47  43  86 S16       29.88
WICHITA        CLOUDY    49  46  90 S15G24    29.79F
OMAHA          CLOUDY    26  25  96 CALM      29.81R
LINCOLN        CLOUDY    24  21  88 W3        29.81R
FALLS CITY     CLEAR     31  27  85 S3        29.82S
LAMONI         CLOUDY    32  26  78 S9        29.83S WCI  24
DES MOINES     MOCLDY    31  26  82 S5        29.82S WCI  26

$$




USA.gov is the U.S. government's official web portal to all federal, state and local government web resources and services.